SL-8 DEB, 22025

Orbit data source: Space-Track

SL-8 DEB, 22025 is space debris in LEO originally from a launch on Tue, 12 Feb 1991 UTC launched from the Plesetsk Missile And Space Complex (PKMTR). Debris objects in space refer to the collection of defunct objects orbiting the Earth. Examples of debris include non-operational satellites, rocket bodies, and fragments generated from explosions, collisions, or faulty payload assembly.

Loading next visibility...
Identifier
22025, 1991-009CJ
Orbit
LEO
Country
Flag of CISCIS
Related business
Manufacturer
Unknown
Mission
Spacecraft
Bus & Motor
Unknown
Mass
Unknown
Launch date (UTC)
1991-02-12 (35 years ago)
Launch vehicle
Unknown
Launch site
Plesetsk Missile And Space Complex (PKMTR)
Object type
Payload
Rocket body
Debris
Shape & HBR
Unknown shape, 0.1 m
Radar Cross Section
Medium (>0.1 m² and <1 m²)

Expand to show TLE details & history
Last TLE update: 2 days ago

TLE from 2 days ago
0 SL-8 DEB
1 22025U 91009CJ  26171.24767779  .00000061  00000-0  61330-3 0  9999
2 22025  73.9396  97.9762 0142905   2.9949 119.2960 12.31720225585724
Epoch: 2026-06-20T05:56Z
TLE epoch observation values (Epoch: 2026-06-20T05:56:39.361Z)
Latitude
53.17208°
Longitude
-102.14644°
Altitude
1,606.777 km
Speed
7.046 km/s
True Right ascension
17h 01m 55s
True Declination
53° 01' 28"
Sunlit
Object was in daylight at epoch
Visualization orbit readout
Latitude
Unknown
Longitude
Unknown
Altitude
Unknown
Speed
Unknown
Apparent Right ascension
Unknown
Apparent Declination
Unknown
Sunlit
N/A
Visualization observer readout
Local Sidereal Time
02:31:48
Azimuth
Unknown
Elevation
Unknown
Doppler factor
Unknown
Orbital elements
Apogee altitude
1,652.912 km
Perigee altitude
1,426.61 km
Semi-major axis
7,917.898 km
Eccentricity
0.01429
Inclination
73.9396°
RAAN
97.9762°
Arg. of periapsis
2.9949°
True anomaly
120.71161°
Mean anomaly
119.296°
Eccentric anomaly
120.00505°
Mean motion
3.08055 °/min
Orbital period
116.86 mins
BSTAR
0.0006133
Loading maneuver chart data...
Computing Atmospheric mass density...
Loading historical data...
Loading historical data...
Loading historical data...
Loading historical data...
Loading historical data...
Loading historical data...
Loading historical data...

Documentation

Showing up to 5 results
|